Liberty, KS

5:46 AM CST on December 06, 2016 (GMT -0600)
Coffeyville Municipal

Weather History for KCFV - June, 2013

Change the Weather History Date:

Thursday, June 13, 2013

  Actual Average Record
Temperature  
Mean Temperature 80 °F -  
Max Temperature 91 °F 81 °F 98 °F (2011)
Min Temperature 69 °F 61 °F 55 °F (2014)
Cooling Degree Days 15    
Growing Degree Days 30 (Base 50)    
Moisture  
Dew Point 64 °F    
Average Humidity 63    
Maximum Humidity 91    
Minimum Humidity 41    
Precipitation  
Precipitation 0.00 in - - ()
Sea Level Pressure  
Sea Level Pressure 29.98 in    
Wind  
Wind Speed 5 mph (NE)    
Max Wind Speed 10 mph    
Max Gust Speed -    
Visibility 10 miles    
Events      
Averages and records for this station are not official NWS values.
T = Trace of Precipitation, MM = Missing Value Source: NWS Daily Summary

Daily Weather History Graph

Daily Weather History Graph

Search for Another Location

Airport or City:

Trip Planner

Search our weather history database for the weather conditions in past years. The results will help you decide how hot, cold, wet, or windy it might be!

Date:

Astronomy

Jun. 13, 2013 Rise Set
Actual Time 6:01 AM CDT 8:43 PM CDT
Civil Twilight 5:30 AM CDT 9:14 PM CDT
Nautical Twilight 4:52 AM CDT 9:52 PM CDT
Astronomical Twilight 4:09 AM CDT 10:35 PM CDT
Moon 10:34 AM CDT (6/13) 11:56 PM CDT (6/13)
Length of Visible Light 15h 43m
Length of Day
14h 41m
Waxing Crescent, 22% of the Moon is Illuminated
Jun 13
Waxing Crescent
Jun 16
First Quarter
Jun 23
Full
Jun 29
Last Quarter
Jul 8
New

Hourly Weather History & Observations

Time (CDT) Temp. Heat Index Dew Point Humidity Pressure Visibility Wind Dir Wind Speed Gust Speed Precip Events Conditions
12:52 AM 77.0 °F - 72.0 °F 84% 29.92 in 10.0 mi Calm Calm - N/A   Clear
1:52 AM 73.9 °F - 71.1 °F 91% 29.92 in 10.0 mi SSW 4.6 mph - N/A   Clear
2:52 AM 73.9 °F - 71.1 °F 91% 29.94 in 10.0 mi Calm Calm - N/A   Clear
3:52 AM 75.0 °F - 64.0 °F 69% 29.95 in 10.0 mi North 8.1 mph - N/A   Clear
4:52 AM 73.0 °F - 62.1 °F 68% 29.98 in 10.0 mi NNE 10.4 mph - N/A   Clear
5:52 AM 70.0 °F - 61.0 °F 73% 29.99 in 10.0 mi North 6.9 mph - N/A   Clear
6:52 AM 69.1 °F - 61.0 °F 75% 30.01 in 10.0 mi North 8.1 mph - N/A   Clear
7:52 AM 71.1 °F - 59.0 °F 66% 30.03 in 10.0 mi NNE 10.4 mph - N/A   Clear
8:52 AM 73.9 °F - 60.1 °F 62% 30.03 in 10.0 mi NE 8.1 mph - N/A   Clear
9:52 AM 77.0 °F - 61.0 °F 58% 30.04 in 10.0 mi East 8.1 mph - N/A   Clear
10:52 AM 80.1 °F 81.2 °F 62.1 °F 54% 30.04 in 10.0 mi ENE 8.1 mph - N/A   Clear
11:52 AM 82.0 °F 83.0 °F 62.1 °F 51% 30.03 in 10.0 mi NE 6.9 mph - N/A   Clear
12:52 PM 84.0 °F 84.5 °F 62.1 °F 47% 30.01 in 10.0 mi East 4.6 mph - N/A   Clear
1:52 PM 88.0 °F 88.4 °F 62.1 °F 42% 30.00 in 10.0 mi Calm Calm - N/A   Clear
2:52 PM 88.0 °F 89.3 °F 64.0 °F 45% 29.97 in 10.0 mi Variable 4.6 mph - N/A   Clear
3:52 PM 89.1 °F 91.0 °F 64.9 °F 45% 29.96 in 10.0 mi Variable 4.6 mph - N/A   Clear
4:52 PM 91.0 °F 92.6 °F 64.0 °F 41% 29.95 in 10.0 mi Variable 5.8 mph - N/A   Clear
5:52 PM 89.1 °F 90.3 °F 64.0 °F 43% 29.94 in 10.0 mi NNE 9.2 mph - N/A   Clear
6:52 PM 87.1 °F 88.9 °F 64.9 °F 48% 29.94 in 10.0 mi East 8.1 mph - N/A   Clear
7:52 PM 84.0 °F 86.5 °F 66.9 °F 56% 29.94 in 10.0 mi ENE 5.8 mph - N/A   Clear
8:52 PM 80.1 °F 82.3 °F 66.9 °F 64% 29.95 in 10.0 mi ENE 8.1 mph - N/A   Clear
9:52 PM 78.1 °F - 66.9 °F 68% 29.96 in 10.0 mi ENE 6.9 mph - N/A   Clear
10:52 PM 73.9 °F - 66.9 °F 79% 29.97 in 10.0 mi ENE 4.6 mph - N/A   Clear
11:52 PM 72.0 °F - 66.0 °F 81% 29.96 in 10.0 mi East 3.5 mph - N/A   Clear